QPF
0.01 0.01 0.02 0.02 0.01 0.00 0.00 0.00 0.00 0.00 0.00 0.00 0.00 0.00 0.00 0.00 0.00 0.00 0.00 0.01 0.01 0.01 0.01 0.01 0.02 0.02 0.02 0.03 0.07 0.07 0.04 0.04 0.04 0.04 0.06 0.07 0.09 0.08 0.08 0.06 0.04 0.03 0.06
0.00 0.01 0.02 0.01 0.01 0.00 0.00 0.00 0.00 0.00 0.00 0.00 0.00 0.00 0.00 0.00 0.00 0.00 0.00 0.01 0.01 0.01 0.02 0.02 0.02 0.02 0.04 0.04 0.05 0.03 0.02 0.04 0.04 0.06 0.08 0.09 0.11 0.10 0.09 0.05 0.02 0.03 0.06
0.00 0.00 0.01 0.02 0.01 0.01 0.00 0.00 0.00 0.00 0.00 0.00 0.00 0.00 0.00 0.00 0.00 0.00 0.00 0.01 0.01 0.01 0.01 0.02 0.01 0.02 0.03 0.04 0.03 0.03 0.03 0.04 0.07 0.10 0.08 0.05 0.10 0.09 0.07 0.05 0.04 0.05 0.06
0.00 0.00 0.00 0.01 0.01 0.01 0.00 0.00 0.00 0.00 0.00 0.00 0.00 0.00 0.00 0.00 0.01 0.00 0.01 0.01 0.01 0.01 0.01 0.01 0.01 0.02 0.03 0.04 0.04 0.04 0.04 0.04 0.06 0.05 0.02 0.02 0.05 0.08 0.07 0.06 0.06 0.07 0.06
0.00 0.00 0.00 0.01 0.01 0.00 0.00 0.00 0.00 0.00 0.00 0.00 0.00 0.00 0.00 0.01 0.01 0.00 0.00 0.01 0.01 0.01 0.01 0.01 0.01 0.01 0.02 0.02 0.04 0.07 0.06 0.06 0.04 0.01 0.01 0.01 0.02 0.08 0.07 0.07 0.06 0.04 0.04
0.00 0.00 0.01 0.01 0.01 0.00 0.00 0.00 0.00 0.00 0.00 0.00 0.00 0.00 0.00 0.01 0.01 0.01 0.01 0.01 0.01 0.01 0.01 0.01 0.01 0.01 0.01 0.03 0.04 0.06 0.08 0.09 0.03 0.00 0.00 0.01 0.02 0.07 0.07 0.07 0.06 0.04 0.03
0.00 0.00 0.01 0.01 0.01 0.00 0.00 0.00 0.00 0.00 0.00 0.01 0.01 0.01 0.01 0.01 0.01 0.01 0.01 0.01 0.01 0.01 0.01 0.01 0.01 0.01 0.02 0.03 0.04 0.04 0.05 0.06 0.01 0.01 0.01 0.01 0.02 0.06 0.07 0.05 0.04 0.04 0.03
0.00 0.01 0.01 0.01 0.01 0.00 0.01 0.00 0.00 0.00 0.00 0.01 0.01 0.01 0.01 0.01 0.01 0.01 0.00 0.01 0.01 0.00 0.01 0.01 0.01 0.01 0.03 0.04 0.04 0.04 0.04 0.04 0.01 0.01 0.01 0.01 0.03 0.05 0.06 0.04 0.04 0.03 0.02
0.01 0.01 0.01 0.01 0.01 0.01 0.01 0.01 0.01 0.01 0.01 0.01 0.01 0.01 0.01 0.01 0.01 0.01 0.01 0.01 0.01 0.01 0.01 0.00 0.01 0.02 0.03 0.04 0.05 0.04 0.04 0.04 0.01 0.00 0.01 0.01 0.03 0.04 0.03 0.03 0.04 0.03 0.03
0.01 0.01 0.01 0.01 0.01 0.01 0.01 0.01 0.01 0.01 0.01 0.01 0.01 0.01 0.01 0.01 0.01 0.01 0.01 0.01 0.01 0.01 0.01 0.01 0.01 0.02 0.02 0.03 0.04 0.04 0.04 0.03 0.01 0.01 0.01 0.02 0.04 0.04 0.02 0.02 0.03 0.04 0.03
0.01 0.01 0.01 0.01 0.01 0.01 0.01 0.01 0.01 0.01 0.01 0.01 0.01 0.01 0.02 0.01 0.00 0.00 0.01 0.01 0.01 0.01 0.01 0.01 0.01 0.02 0.02 0.02 0.04 0.05 0.03 0.02 0.02 0.01 0.01 0.02 0.04 0.04 0.03 0.02 0.03 0.04 0.03
0.02 0.02 0.03 0.02 0.01 0.01 0.01 0.01 0.01 0.01 0.01 0.01 0.01 0.01 0.01 0.00 0.00 0.00 0.01 0.02 0.02 0.01 0.01 0.02 0.03 0.03 0.02 0.02 0.03 0.03 0.02 0.02 0.01 0.00 0.01 0.03 0.03 0.03 0.03 0.02 0.03 0.03 0.04
0.07 0.06 0.05 0.05 0.03 0.02 0.00 0.01 0.00 0.00 0.00 0.00 0.01 0.01 0.00 0.00 0.00 0.00 0.00 0.01 0.01 0.02 0.01 0.02 0.02 0.02 0.01 0.01 0.02 0.02 0.02 0.02 0.01 0.01 0.01 0.03 0.03 0.03 0.03 0.04 0.03 0.03 0.04
0.22 0.13 0.08 0.06 0.04 0.03 0.02 0.01 0.00 0.00 0.00 0.00 0.00 0.00 0.00 0.00 0.00 0.00 0.00 0.00 0.01 0.01 0.01 0.01 0.01 0.01 0.01 0.01 0.01 0.02 0.02 0.02 0.01 0.01 0.01 0.03 0.03 0.03 0.03 0.03 0.04 0.04 0.04
0.12 0.08 0.06 0.05 0.04 0.03 0.04 0.03 0.02 0.01 0.00 0.00 0.01 0.01 0.00 0.00 0.00 0.00 0.00 0.01 0.01 0.01 0.01 0.01 0.02 0.03 0.02 0.02 0.02 0.02 0.03 0.02 0.02 0.01 0.02 0.04 0.04 0.04 0.04 0.03 0.03 0.04 0.04
0.15 0.13 0.08 0.07 0.05 0.04 0.04 0.05 0.02 0.01 0.00 0.00 0.00 0.01 0.00 0.01 0.01 0.00 0.01 0.01 0.01 0.01 0.01 0.02 0.03 0.04 0.03 0.03 0.04 0.04 0.03 0.02 0.02 0.02 0.02 0.03 0.04 0.04 0.05 0.05 0.04 0.04 0.04
0.17 0.17 0.13 0.11 0.10 0.10 0.10 0.07 0.04 0.02 0.01 0.01 0.00 0.00 0.01 0.01 0.01 0.01 0.01 0.01 0.02 0.02 0.01 0.02 0.04 0.03 0.04 0.04 0.04 0.03 0.04 0.04 0.03 0.02 0.03 0.03 0.04 0.06 0.07 0.07 0.07 0.08 0.07
0.20 0.18 0.19 0.19 0.21 0.18 0.16 0.13 0.09 0.06 0.04 0.02 0.01 0.02 0.01 0.01 0.01 0.01 0.01 0.01 0.02 0.02 0.01 0.02 0.04 0.03 0.03 0.03 0.03 0.04 0.04 0.04 0.04 0.03 0.02 0.03 0.03 0.04 0.06 0.08 0.08 0.08 0.10
0.24 0.34 0.40 0.35 0.31 0.27 0.27 0.27 0.20 0.16 0.11 0.06 0.05 0.05 0.03 0.02 0.01 0.01 0.01 0.01 0.01 0.01 0.01 0.02 0.02 0.01 0.02 0.03 0.03 0.03 0.03 0.03 0.04 0.03 0.02 0.02 0.03 0.03 0.03 0.05 0.08 0.08 0.10
0.28 0.40 0.50 0.46 0.36 0.33 0.28 0.24 0.21 0.17 0.15 0.11 0.10 0.07 0.05 0.03 0.02 0.01 0.01 0.01 0.01 0.01 0.01 0.01 0.02 0.01 0.01 0.02 0.03 0.02 0.02 0.02 0.03 0.03 0.02 0.03 0.03 0.04 0.03 0.03 0.03 0.04 0.08
0.17 0.18 0.24 0.30 0.32 0.26 0.22 0.18 0.15 0.11 0.10 0.13 0.14 0.11 0.08 0.05 0.03 0.02 0.01 0.01 0.01 0.01 0.01 0.01 0.02 0.01 0.01 0.01 0.01 0.01 0.01 0.02 0.02 0.02 0.02 0.03 0.03 0.03 0.05 0.04 0.03 0.01 0.03
0.13 0.15 0.15 0.21 0.32 0.31 0.23 0.22 0.23 0.24 0.21 0.18 0.19 0.16 0.11 0.06 0.04 0.02 0.02 0.01 0.01 0.02 0.01 0.01 0.01 0.01 0.01 0.01 0.01 0.01 0.00 0.01 0.01 0.01 0.02 0.02 0.03 0.02 0.03 0.02 0.02 0.01 0.01
0.09 0.13 0.12 0.13 0.22 0.27 0.28 0.32 0.33 0.34 0.33 0.25 0.19 0.15 0.10 0.06 0.05 0.03 0.03 0.02 0.02 0.01 0.02 0.02 0.02 0.01 0.01 0.01 0.01 0.00 0.00 0.00 0.00 0.00 0.01 0.01 0.02 0.02 0.02 0.02 0.01 0.01 0.00
0.06 0.14 0.18 0.14 0.17 0.18 0.19 0.20 0.21 0.19 0.17 0.15 0.13 0.11 0.09 0.07 0.05 0.05 0.04 0.03 0.02 0.01 0.02 0.02 0.02 0.01 0.01 0.01 0.00 0.00 0.00 0.00 0.00 0.00 0.00 0.00 0.00 0.00 0.01 0.01 0.01 0.01 0.01
0.07 0.11 0.16 0.14 0.14 0.13 0.14 0.16 0.13 0.09 0.10 0.11 0.10 0.12 0.12 0.10 0.08 0.06 0.04 0.04 0.03 0.02 0.02 0.01 0.01 0.01 0.00 0.00 0.00 0.00 0.00 0.00 0.00 0.00 0.00 0.00 0.00 0.00 0.00 0.01 0.01 0.01 0.01
0.08 0.07 0.09 0.11 0.12 0.13 0.15 0.16 0.12 0.08 0.09 0.10 0.08 0.09 0.09 0.08 0.07 0.06 0.05 0.04 0.03 0.03 0.02 0.01 0.00 0.00 0.00 0.00 0.00 0.00 0.00 0.00 0.00 0.00 0.00 0.00 0.00 0.00 0.00 0.00 0.00 0.00 0.00
MSLP
1010.91 1010.71 1010.74 1011.00 1011.41 1011.88 1012.33 1012.68 1012.89 1012.98 1012.98 1012.97 1013.00 1013.11 1013.31 1013.58 1013.89 1014.17 1014.39 1014.53 1014.57 1014.53 1014.46 1014.40 1014.37 1014.40 1014.50 1014.66 1014.85 1015.06 1015.26 1015.44 1015.60 1015.73 1015.85 1015.98 1016.13 1016.30 1016.51 1016.74 1017.00 1017.26 1017.52
1010.53 1010.45 1010.59 1010.92 1011.40 1011.92 1012.39 1012.76 1013.00 1013.12 1013.16 1013.19 1013.26 1013.41 1013.64 1013.93 1014.24 1014.52 1014.73 1014.84 1014.86 1014.82 1014.74 1014.66 1014.63 1014.66 1014.75 1014.89 1015.07 1015.26 1015.45 1015.61 1015.77 1015.91 1016.05 1016.20 1016.38 1016.58 1016.81 1017.06 1017.33 1017.61 1017.89
1010.10 1010.13 1010.36 1010.78 1011.32 1011.88 1012.40 1012.81 1013.09 1013.25 1013.34 1013.42 1013.53 1013.71 1013.96 1014.25 1014.55 1014.80 1014.98 1015.07 1015.08 1015.03 1014.96 1014.90 1014.88 1014.91 1015.00 1015.14 1015.31 1015.49 1015.67 1015.84 1016.01 1016.17 1016.33 1016.51 1016.70 1016.92 1017.16 1017.42 1017.70 1017.98 1018.27
1009.68 1009.82 1010.14 1010.63 1011.22 1011.84 1012.39 1012.84 1013.16 1013.37 1013.51 1013.63 1013.78 1013.98 1014.22 1014.50 1014.77 1014.99 1015.15 1015.23 1015.24 1015.20 1015.16 1015.13 1015.14 1015.21 1015.31 1015.46 1015.62 1015.80 1015.99 1016.17 1016.35 1016.53 1016.71 1016.91 1017.11 1017.33 1017.56 1017.81 1018.07 1018.35 1018.64
1009.38 1009.60 1010.00 1010.55 1011.19 1011.83 1012.41 1012.88 1013.24 1013.48 1013.66 1013.81 1013.98 1014.18 1014.42 1014.67 1014.91 1015.11 1015.25 1015.33 1015.36 1015.37 1015.38 1015.41 1015.47 1015.57 1015.71 1015.87 1016.04 1016.22 1016.41 1016.60 1016.79 1016.99 1017.19 1017.40 1017.60 1017.80 1018.01 1018.22 1018.45 1018.70 1018.97
1009.27 1009.55 1010.00 1010.58 1011.24 1011.89 1012.47 1012.95 1013.32 1013.58 1013.78 1013.95 1014.13 1014.34 1014.56 1014.79 1015.01 1015.19 1015.33 1015.43 1015.51 1015.57 1015.65 1015.75 1015.88 1016.03 1016.20 1016.37 1016.55 1016.73 1016.91 1017.11 1017.31 1017.52 1017.73 1017.93 1018.12 1018.30 1018.46 1018.63 1018.82 1019.03 1019.27
1009.36 1009.68 1010.15 1010.74 1011.39 1012.02 1012.58 1013.04 1013.39 1013.65 1013.86 1014.04 1014.23 1014.44 1014.66 1014.89 1015.10 1015.28 1015.43 1015.57 1015.69 1015.83 1015.98 1016.16 1016.35 1016.55 1016.74 1016.93 1017.10 1017.27 1017.45 1017.64 1017.84 1018.06 1018.27 1018.46 1018.63 1018.78 1018.90 1019.02 1019.15 1019.32 1019.53
1009.62 1009.96 1010.44 1011.01 1011.62 1012.20 1012.71 1013.12 1013.45 1013.70 1013.91 1014.10 1014.31 1014.53 1014.77 1015.00 1015.21 1015.41 1015.58 1015.76 1015.94 1016.14 1016.35 1016.59 1016.83 1017.06 1017.28 1017.46 1017.63 1017.79 1017.95 1018.13 1018.33 1018.53 1018.74 1018.93 1019.09 1019.21 1019.30 1019.38 1019.47 1019.60 1019.78
1009.98 1010.33 1010.79 1011.32 1011.88 1012.39 1012.83 1013.19 1013.48 1013.72 1013.93 1014.15 1014.39 1014.64 1014.90 1015.15 1015.39 1015.61 1015.81 1016.01 1016.22 1016.46 1016.72 1016.99 1017.26 1017.51 1017.73 1017.91 1018.06 1018.20 1018.34 1018.51 1018.70 1018.90 1019.11 1019.30 1019.46 1019.57 1019.65 1019.71 1019.77 1019.88 1020.03
1010.33 1010.69 1011.13 1011.62 1012.11 1012.56 1012.93 1013.24 1013.49 1013.72 1013.95 1014.21 1014.49 1014.79 1015.09 1015.38 1015.64 1015.87 1016.08 1016.29 1016.51 1016.76 1017.03 1017.31 1017.58 1017.83 1018.04 1018.21 1018.35 1018.47 1018.60 1018.76 1018.94 1019.15 1019.36 1019.57 1019.73 1019.86 1019.95 1020.01 1020.08 1020.17 1020.31
1010.59 1010.96 1011.40 1011.86 1012.30 1012.68 1013.00 1013.26 1013.49 1013.73 1013.99 1014.29 1014.62 1014.98 1015.33 1015.66 1015.94 1016.18 1016.39 1016.59 1016.79 1017.01 1017.26 1017.52 1017.77 1018.01 1018.21 1018.37 1018.50 1018.62 1018.75 1018.90 1019.08 1019.30 1019.52 1019.74 1019.93 1020.09 1020.21 1020.30 1020.39 1020.49 1020.64
1010.71 1011.12 1011.57 1012.01 1012.42 1012.76 1013.04 1013.28 1013.51 1013.76 1014.06 1014.41 1014.81 1015.22 1015.62 1015.98 1016.28 1016.52 1016.70 1016.87 1017.03 1017.21 1017.41 1017.63 1017.86 1018.07 1018.26 1018.42 1018.56 1018.69 1018.82 1018.98 1019.17 1019.39 1019.63 1019.87 1020.09 1020.28 1020.44 1020.57 1020.69 1020.82 1020.98
1010.70 1011.16 1011.64 1012.09 1012.48 1012.81 1013.08 1013.32 1013.57 1013.84 1014.18 1014.58 1015.02 1015.48 1015.91 1016.29 1016.60 1016.83 1016.99 1017.12 1017.23 1017.36 1017.51 1017.69 1017.88 1018.08 1018.27 1018.44 1018.60 1018.75 1018.90 1019.07 1019.27 1019.49 1019.73 1019.98 1020.21 1020.43 1020.63 1020.81 1020.97 1021.14 1021.31
1010.59 1011.12 1011.64 1012.12 1012.53 1012.88 1013.16 1013.42 1013.68 1013.99 1014.35 1014.78 1015.25 1015.73 1016.18 1016.57 1016.87 1017.10 1017.24 1017.33 1017.40 1017.48 1017.59 1017.74 1017.91 1018.10 1018.30 1018.50 1018.69 1018.86 1019.04 1019.22 1019.42 1019.63 1019.86 1020.09 1020.33 1020.56 1020.79 1021.00 1021.20 1021.39 1021.59
1010.45 1011.04 1011.62 1012.14 1012.60 1012.98 1013.30 1013.58 1013.87 1014.19 1014.57 1015.00 1015.46 1015.93 1016.38 1016.76 1017.06 1017.27 1017.41 1017.49 1017.54 1017.61 1017.70 1017.82 1017.99 1018.19 1018.41 1018.64 1018.86 1019.07 1019.27 1019.46 1019.64 1019.83 1020.02 1020.22 1020.44 1020.66 1020.89 1021.11 1021.34 1021.56 1021.77
1010.33 1010.98 1011.61 1012.19 1012.69 1013.12 1013.48 1013.80 1014.11 1014.44 1014.80 1015.20 1015.62 1016.05 1016.46 1016.82 1017.12 1017.34 1017.49 1017.59 1017.66 1017.74 1017.84 1017.97 1018.15 1018.37 1018.61 1018.87 1019.12 1019.36 1019.57 1019.75 1019.92 1020.06 1020.21 1020.36 1020.53 1020.71 1020.91 1021.14 1021.37 1021.60 1021.82
1010.27 1010.95 1011.62 1012.24 1012.79 1013.27 1013.68 1014.04 1014.37 1014.69 1015.01 1015.35 1015.71 1016.07 1016.42 1016.75 1017.04 1017.28 1017.47 1017.62 1017.75 1017.87 1018.01 1018.17 1018.37 1018.61 1018.87 1019.15 1019.42 1019.67 1019.89 1020.07 1020.21 1020.31 1020.39 1020.48 1020.58 1020.71 1020.88 1021.08 1021.30 1021.53 1021.76
1010.25 1010.94 1011.62 1012.26 1012.86 1013.38 1013.85 1014.24 1014.59 1014.89 1015.16 1015.43 1015.70 1015.98 1016.27 1016.56 1016.84 1017.12 1017.37 1017.59 1017.79 1017.99 1018.18 1018.38 1018.61 1018.86 1019.14 1019.43 1019.71 1019.97 1020.18 1020.35 1020.46 1020.52 1020.55 1020.58 1020.62 1020.68 1020.80 1020.96 1021.16 1021.38 1021.61
1010.24 1010.90 1011.56 1012.21 1012.83 1013.40 1013.92 1014.36 1014.72 1015.01 1015.23 1015.42 1015.60 1015.79 1016.01 1016.26 1016.55 1016.86 1017.18 1017.50 1017.79 1018.07 1018.32 1018.57 1018.82 1019.08 1019.36 1019.64 1019.92 1020.18 1020.40 1020.56 1020.65 1020.69 1020.68 1020.65 1020.64 1020.65 1020.71 1020.83 1020.99 1021.20 1021.41
1010.19 1010.79 1011.40 1012.03 1012.66 1013.28 1013.84 1014.33 1014.72 1015.01 1015.21 1015.34 1015.44 1015.55 1015.70 1015.92 1016.21 1016.56 1016.95 1017.35 1017.74 1018.09 1018.41 1018.70 1018.96 1019.22 1019.49 1019.76 1020.03 1020.29 1020.51 1020.68 1020.78 1020.81 1020.79 1020.73 1020.67 1020.64 1020.66 1020.73 1020.85 1021.02 1021.21
1010.07 1010.58 1011.12 1011.71 1012.34 1012.98 1013.60 1014.14 1014.58 1014.89 1015.08 1015.18 1015.23 1015.29 1015.39 1015.59 1015.88 1016.26 1016.71 1017.18 1017.65 1018.07 1018.43 1018.75 1019.02 1019.27 1019.52 1019.78 1020.05 1020.31 1020.55 1020.74 1020.86 1020.91 1020.90 1020.84 1020.76 1020.69 1020.66 1020.69 1020.76 1020.89 1021.04
1009.88 1010.28 1010.73 1011.27 1011.88 1012.54 1013.20 1013.81 1014.31 1014.67 1014.89 1014.99 1015.02 1015.05 1015.13 1015.30 1015.60 1016.01 1016.50 1017.02 1017.54 1018.00 1018.40 1018.73 1019.00 1019.24 1019.48 1019.73 1020.00 1020.28 1020.54 1020.77 1020.93 1021.02 1021.04 1020.99 1020.91 1020.82 1020.75 1020.72 1020.74 1020.81 1020.91
1009.66 1009.93 1010.29 1010.76 1011.34 1012.01 1012.71 1013.38 1013.95 1014.38 1014.65 1014.78 1014.83 1014.86 1014.94 1015.11 1015.41 1015.83 1016.34 1016.89 1017.43 1017.92 1018.33 1018.66 1018.93 1019.16 1019.39 1019.64 1019.92 1020.22 1020.53 1020.80 1021.02 1021.16 1021.21 1021.18 1021.11 1021.00 1020.90 1020.82 1020.78 1020.78 1020.81
1009.45 1009.62 1009.88 1010.27 1010.81 1011.46 1012.19 1012.90 1013.54 1014.04 1014.39 1014.58 1014.68 1014.74 1014.83 1015.02 1015.31 1015.73 1016.24 1016.80 1017.34 1017.83 1018.24 1018.57 1018.83 1019.06 1019.29 1019.55 1019.85 1020.18 1020.53 1020.85 1021.12 1021.30 1021.40 1021.40 1021.33 1021.21 1021.07 1020.94 1020.84 1020.76 1020.73
1009.34 1009.42 1009.58 1009.89 1010.37 1010.99 1011.71 1012.45 1013.13 1013.70 1014.12 1014.39 1014.55 1014.66 1014.79 1014.99 1015.30 1015.71 1016.21 1016.74 1017.27 1017.75 1018.15 1018.47 1018.73 1018.96 1019.21 1019.48 1019.80 1020.16 1020.54 1020.90 1021.22 1021.44 1021.56 1021.59 1021.52 1021.39 1021.23 1021.05 1020.89 1020.75 1020.65
1009.35 1009.36 1009.45 1009.68 1010.08 1010.64 1011.32 1012.06 1012.76 1013.37 1013.85 1014.19 1014.43 1014.60 1014.78 1015.01 1015.32 1015.73 1016.20 1016.71 1017.22 1017.67 1018.05 1018.37 1018.63 1018.88 1019.13 1019.43 1019.77 1020.15 1020.55 1020.94 1021.27 1021.51 1021.66 1021.70 1021.64 1021.51 1021.33 1021.12 1020.92 1020.74 1020.58
Thickness
5777 5778 5776 5774 5772 5770 5769 5768 5768 5767 5766 5766 5765 5764 5763 5763 5762 5761 5760 5759 5759 5757 5756 5756 5755 5754 5754 5753 5752 5750 5749 5748 5747 5746 5745 5744 5742 5742 5741 5740 5739 5738 5737
5783 5779 5776 5774 5772 5770 5768 5766 5765 5765 5764 5764 5763 5762 5762 5761 5760 5759 5758 5758 5757 5756 5755 5754 5753 5752 5751 5750 5749 5748 5747 5746 5745 5744 5743 5742 5740 5739 5739 5738 5737 5736 5735
5784 5780 5776 5773 5771 5769 5767 5765 5764 5763 5762 5762 5761 5760 5760 5759 5758 5757 5756 5756 5755 5754 5753 5752 5751 5750 5749 5748 5747 5746 5745 5744 5743 5742 5741 5739 5738 5737 5737 5736 5735 5734 5733
5785 5780 5776 5773 5770 5768 5766 5764 5763 5762 5761 5760 5760 5759 5758 5757 5756 5755 5754 5754 5753 5752 5751 5750 5749 5748 5747 5746 5745 5744 5743 5742 5741 5740 5738 5737 5736 5735 5734 5734 5733 5732 5731
5782 5778 5775 5772 5769 5767 5765 5763 5761 5760 5759 5759 5758 5757 5756 5755 5754 5753 5753 5752 5750 5750 5749 5748 5747 5746 5745 5744 5742 5741 5740 5740 5739 5737 5736 5735 5734 5733 5733 5732 5731 5730 5729
5780 5776 5773 5770 5768 5765 5764 5762 5761 5759 5758 5757 5757 5756 5755 5754 5753 5752 5751 5750 5748 5748 5747 5746 5745 5744 5743 5742 5740 5739 5738 5737 5736 5735 5734 5733 5732 5731 5731 5730 5728 5728 5727
5778 5774 5771 5768 5766 5764 5762 5760 5759 5758 5757 5756 5755 5754 5753 5752 5751 5750 5749 5748 5747 5745 5744 5744 5742 5741 5741 5740 5739 5738 5736 5735 5733 5732 5731 5731 5730 5729 5728 5728 5727 5726 5725
5777 5773 5769 5767 5764 5762 5760 5758 5757 5756 5755 5754 5753 5752 5751 5750 5749 5748 5747 5746 5745 5744 5742 5741 5740 5739 5739 5738 5737 5736 5734 5733 5731 5730 5729 5728 5728 5727 5726 5725 5725 5724 5723
5774 5770 5767 5765 5762 5760 5758 5756 5755 5754 5753 5752 5751 5750 5750 5749 5748 5747 5746 5745 5743 5742 5740 5739 5739 5738 5737 5736 5735 5734 5732 5731 5729 5728 5727 5726 5726 5725 5724 5724 5723 5722 5721
5770 5767 5765 5763 5760 5758 5756 5755 5753 5752 5751 5750 5749 5749 5748 5747 5746 5745 5744 5743 5742 5740 5739 5738 5737 5736 5735 5734 5733 5732 5730 5729 5727 5726 5725 5724 5724 5723 5723 5722 5721 5720 5719
5765 5764 5762 5760 5757 5755 5754 5753 5751 5750 5749 5748 5748 5747 5746 5745 5744 5743 5742 5741 5740 5738 5737 5736 5735 5734 5733 5732 5731 5730 5729 5727 5726 5725 5724 5723 5722 5722 5721 5720 5720 5719 5718
5761 5760 5759 5756 5754 5753 5751 5750 5749 5748 5747 5746 5746 5745 5744 5743 5742 5741 5740 5739 5738 5737 5736 5734 5733 5732 5731 5730 5729 5728 5727 5726 5725 5723 5722 5722 5721 5720 5719 5718 5718 5717 5716
5761 5758 5756 5754 5752 5750 5749 5747 5746 5745 5745 5744 5743 5742 5741 5740 5739 5739 5738 5737 5736 5735 5734 5733 5731 5730 5729 5728 5727 5727 5726 5725 5723 5722 5721 5720 5719 5718 5717 5716 5716 5715 5714
5758 5756 5753 5751 5750 5748 5746 5745 5743 5742 5742 5741 5740 5740 5739 5738 5737 5737 5736 5735 5734 5733 5732 5731 5730 5729 5728 5727 5726 5725 5725 5723 5722 5721 5720 5719 5718 5717 5716 5715 5714 5713 5712
5757 5754 5752 5749 5747 5745 5744 5742 5741 5740 5740 5739 5738 5737 5737 5736 5736 5735 5734 5734 5733 5732 5731 5730 5728 5728 5727 5726 5726 5725 5724 5722 5721 5720 5719 5718 5716 5715 5715 5714 5713 5712 5710
5756 5752 5749 5746 5744 5742 5741 5739 5739 5738 5737 5736 5736 5736 5735 5735 5734 5734 5733 5732 5732 5731 5730 5729 5727 5726 5726 5725 5725 5724 5723 5722 5720 5719 5718 5716 5715 5714 5713 5712 5711 5710 5709
5754 5751 5747 5743 5740 5738 5737 5736 5736 5736 5735 5734 5734 5734 5734 5734 5733 5732 5731 5731 5731 5730 5730 5728 5726 5725 5725 5724 5723 5723 5722 5721 5719 5718 5717 5716 5714 5713 5712 5711 5710 5709 5708
5754 5749 5745 5743 5738 5735 5735 5734 5733 5733 5733 5732 5732 5731 5732 5732 5732 5731 5730 5730 5730 5729 5729 5727 5725 5724 5723 5722 5721 5721 5720 5719 5718 5717 5716 5715 5714 5713 5712 5711 5710 5709 5708
5755 5749 5742 5740 5736 5733 5732 5731 5731 5731 5731 5730 5729 5729 5730 5731 5731 5730 5729 5729 5729 5728 5728 5726 5724 5723 5721 5720 5719 5719 5718 5718 5718 5717 5716 5715 5713 5712 5712 5711 5710 5709 5708
5756 5750 5743 5738 5734 5733 5730 5728 5727 5728 5728 5728 5728 5728 5729 5729 5729 5729 5728 5728 5728 5727 5726 5725 5723 5722 5720 5719 5719 5717 5716 5717 5716 5716 5715 5714 5714 5713 5712 5711 5710 5710 5709
5755 5749 5743 5738 5734 5732 5729 5726 5724 5724 5725 5726 5726 5727 5728 5728 5728 5728 5728 5727 5727 5726 5725 5724 5722 5720 5718 5717 5715 5712 5713 5715 5715 5715 5715 5714 5714 5713 5713 5712 5711 5710 5709
5756 5750 5745 5740 5736 5733 5731 5729 5726 5725 5724 5724 5725 5726 5727 5727 5728 5727 5727 5726 5726 5725 5724 5723 5722 5719 5717 5717 5713 5709 5706 5708 5713 5715 5715 5715 5715 5714 5714 5713 5712 5711 5710
5755 5751 5747 5741 5738 5734 5732 5728 5725 5722 5720 5720 5721 5722 5725 5726 5727 5727 5726 5726 5725 5725 5723 5722 5722 5719 5715 5714 5715 5711 5705 5702 5707 5712 5714 5715 5716 5715 5715 5714 5713 5712 5711
5757 5753 5747 5742 5737 5734 5732 5728 5725 5723 5720 5720 5721 5722 5724 5724 5725 5725 5725 5725 5724 5724 5723 5722 5721 5720 5717 5714 5713 5713 5712 5711 5706 5706 5711 5714 5715 5715 5715 5715 5714 5713 5712
5758 5753 5748 5742 5738 5736 5733 5730 5727 5725 5723 5721 5720 5720 5721 5722 5724 5724 5724 5723 5722 5722 5722 5722 5720 5719 5718 5716 5714 5712 5711 5709 5709 5706 5705 5709 5713 5715 5715 5715 5715 5714 5713
5757 5753 5748 5742 5738 5736 5733 5731 5728 5725 5722 5719 5718 5718 5719 5719 5721 5722 5722 5721 5721 5721 5720 5720 5719 5718 5717 5716 5715 5714 5712 5710 5708 5706 5705 5705 5707 5711 5714 5714 5714 5714 5713